This demonstration page uses our WeatherBlox Daily Observations layout. Learn more.

Left ArrowRight Arrow

53.62937, 11.41316

Hourly Observations for May 1, 2021

Temp ( °F °C ) Dew Point ( °F °C ) Humidity (%) Winds ( mph kmh ) Pressure ( in mb ) Visibility ( mi km ) Precip ( " mm )
7:50 am 07:50 Mostly Sunny 45 7 39 4 81 81 SE 6 9 29.95 1014 30 48 N/A
8:20 am 08:20 Mostly Cloudy 45 7 39 4 81 81 ESE 6 9 29.95 1014 30 48 N/A
8:50 am 08:50 Mostly Cloudy 45 7 39 4 81 81 ESE 6 9 29.95 1014 30 48 N/A
9:20 am 09:20 Partly Cloudy 46 8 37 3 71 71 ESE 7 11 29.94 1014 30 48 N/A
9:50 am 09:50 Partly Cloudy 48 9 37 3 66 66 ESE 8 13 29.94 1014 30 48 N/A
10:20 am 10:20 Partly Cloudy 48 9 37 3 66 66 ESE 8 13 29.94 1014 30 48 N/A
10:50 am 10:50 Partly Cloudy 50 10 39 4 67 67 SE 7 11 29.94 1014 30 48 N/A
11:20 am 11:20 Mostly Cloudy 50 10 39 4 67 67 SE 6 9 29.94 1014 30 48 N/A
11:50 am 11:50 Mostly Cloudy 50 10 39 4 67 67 SE 7 11 29.94 1014 30 48 N/A
12:20 pm 12:20 Mostly Cloudy 50 10 39 4 67 67 SE 6 9 29.94 1014 30 48 N/A
12:50 pm 12:50 Partly Cloudy 52 11 39 4 62 62 SE 6 9 29.91 1013 30 48 N/A
1:20 pm 13:20 Partly Cloudy 54 12 39 4 58 58 SE 7 11 29.91 1013 30 48 N/A
1:50 pm 13:50 Partly Cloudy 54 12 39 4 58 58 SE 8 13 29.91 1013 30 48 N/A
2:20 pm 14:20 Partly Cloudy 52 11 39 4 62 62 E 8 13 29.91 1013 30 48 N/A
2:50 pm 14:50 Partly Cloudy 55 13 41 5 59 59 ESE 7 11 29.91 1013 30 48 N/A
3:20 pm 15:20 Partly Cloudy 52 11 41 5 67 67 ENE 10 17 29.91 1013 30 48 N/A
3:50 pm 15:50 Partly Cloudy 54 12 39 4 58 58 E 7 11 29.89 1012 30 48 N/A
4:20 pm 16:20 Partly Cloudy 55 13 41 5 59 59 E 7 11 29.88 1012 30 48 N/A
4:50 pm 16:50 Partly Cloudy 54 12 41 5 63 63 ENE 7 11 29.89 1012 30 48 N/A
5:20 pm 17:20 Partly Cloudy 54 12 41 5 63 63 E 8 13 29.89 1012 30 48 N/A
5:50 pm 17:50 Partly Cloudy 54 12 39 4 58 58 E 6 9 29.89 1012 30 48 N/A
6:20 pm 18:20 Partly Cloudy 54 12 39 4 58 58 E 5 7 29.89 1012 30 48 N/A
6:50 pm 18:50 Mostly Cloudy with Light Rain 50 10 43 6 76 76 WSW 6 9 29.89 1012 30 48 N/A
7:20 pm 19:20 Mostly Cloudy with Light Rain 48 9 45 7 87 87 WNW 7 11 29.89 1012 30 48 N/A
7:50 pm 19:50 Partly Cloudy 48 9 45 7 87 87 N 6 9 29.89 1012 30 48 N/A
8:20 pm 20:20 Mostly Cloudy 48 9 45 7 87 87 E 3 6 29.89 1012 30 48 N/A
8:50 pm 20:50 Partly Cloudy 48 9 45 7 87 87 ENE 5 7 29.89 1012 30 48 N/A

Powered by AerisWeather